| time (UTC) | temp F | wind direction | speed knots | gust knots | rain 1hr in | rain 24hr in | rain mn in | humidity % | barometer mb |
| 20260505171220 | 57 | 356 | 4.3 | 14.8 | 0.00 | 0.00 | 0.00 | 85 | 1006.2 |
| 20260505170003 | 57 | 360 | 2.6 | 9.6 | 0.00 | 0.00 | 0.00 | 85 | 1005.5 |
| 20260505165003 | 57 | 356 | 3.5 | 10.4 | 0.00 | 0.00 | 0.00 | 85 | 1005.5 |
| 20260505164003 | 57 | 5 | 3.5 | 9.6 | 0.00 | 0.00 | 0.00 | 85 | 1005.3 |
| 20260505163218 | 57 | 360 | 4.3 | 13.9 | 0.00 | 0.00 | 0.00 | 85 | 1005.2 |
| 20260505162003 | 58 | 360 | 4.3 | 12.2 | 0.00 | 0.00 | 0.00 | 85 | 1005.2 |
| 20260505161003 | 59 | 9 | 2.6 | 10.4 | 0.00 | 0.00 | 0.00 | 85 | 1005.1 |
| 20260505153219 | 61 | 359 | 3.5 | 7.8 | 0.00 | 0.00 | 0.00 | 84 | 1004.3 |
| 20260505152004 | 62 | 344 | 4.3 | 11.3 | 0.00 | 0.00 | 0.00 | 82 | 1004.1 |
| 20260505151003 | 64 | 343 | 4.3 | 12.2 | 0.00 | 0.00 | 0.00 | 82 | 1003.9 |
| 20260505125003 | 66 | 84 | 2.6 | 7.8 | 0.00 | 0.00 | 0.00 | 85 | 1002.6 |
| 20260505124003 | 66 | 80 | 0.9 | 5.2 | 0.00 | 0.00 | 0.00 | 85 | 1002.7 |
| 20260505123003 | 66 | 70 | 2.6 | 11.3 | 0.00 | 0.00 | 0.00 | 85 | 1002.6 |
| 20260505122003 | 66 | 72 | 1.7 | 7.0 | 0.00 | 0.00 | 0.00 | 85 | 1002.4 |
| 20260505121218 | 66 | 69 | 1.7 | 8.7 | 0.00 | 0.00 | 0.00 | 86 | 1002.5 |
| 20260505120004 | 66 | 76 | 1.7 | 7.8 | 0.00 | 0.00 | 0.00 | 86 | 1002.5 |
| 20260505115004 | 66 | 80 | 2.6 | 9.6 | 0.00 | 0.00 | 0.00 | 86 | 1002.4 |
| 20260505114003 | 66 | 75 | 0.9 | 7.0 | 0.00 | 0.00 | 0.00 | 86 | 1002.4 |
| 20260505113004 | 66 | 0 | 0.0 | 0.0 | 0.00 | 0.00 | 0.00 | 86 | 1002.4 |
| 20260505112217 | 66 | 40 | 0.0 | 3.5 | 0.00 | 0.00 | 0.00 | 86 | 1002.5 |
| 20260505111218 | 66 | 72 | 0.0 | 3.5 | 0.00 | 0.00 | 0.00 | 86 | 1002.4 |
| 20260505102218 | 66 | 73 | 3.5 | 11.3 | 0.00 | 0.00 | 0.00 | 86 | 1001.5 |
| 20260505101003 | 66 | 69 | 1.7 | 12.2 | 0.00 | 0.00 | 0.00 | 86 | 1001.3 |
| 20260505100003 | 66 | 67 | 1.7 | 9.6 | 0.00 | 0.00 | 0.00 | 86 | 1001.2 |
| 20260505095003 | 66 | 66 | 1.7 | 7.8 | 0.00 | 0.00 | 0.00 | 86 | 1001.2 |
| 20260505094003 | 66 | 73 | 1.7 | 7.0 | 0.00 | 0.00 | 0.00 | 85 | 1001.2 |
| 20260505093003 | 66 | 70 | 1.7 | 10.4 | 0.00 | 0.00 | 0.00 | 84 | 1001.2 |
| 20260505092219 | 66 | 75 | 2.6 | 8.7 | 0.00 | 0.00 | 0.00 | 84 | 1001.3 |
| 20260505091003 | 66 | 73 | 0.9 | 7.0 | 0.00 | 0.00 | 0.00 | 83 | 1001.3 |
| 20260505090003 | 66 | 67 | 1.7 | 7.0 | 0.00 | 0.00 | 0.00 | 82 | 1001.3 |
| 20260505085003 | 67 | 77 | 0.9 | 6.1 | 0.00 | 0.00 | 0.00 | 81 | 1001.3 |
| 20260505084004 | 68 | 76 | 1.7 | 7.8 | 0.00 | 0.00 | 0.00 | 80 | 1001.3 |
| 20260505083003 | 68 | 74 | 0.9 | 7.0 | 0.00 | 0.00 | 0.00 | 80 | 1001.4 |
| 20260505082003 | 68 | 76 | 1.7 | 7.0 | 0.00 | 0.00 | 0.00 | 79 | 1001.4 |
| 20260505081220 | 68 | 74 | 1.7 | 7.0 | 0.00 | 0.00 | 0.00 | 79 | 1001.4 |
| 20260505080004 | 68 | 74 | 1.7 | 7.8 | 0.00 | 0.00 | 0.00 | 79 | 1001.5 |
| 20260505075003 | 68 | 74 | 2.6 | 10.4 | 0.00 | 0.00 | 0.00 | 79 | 1001.6 |
| 20260505074218 | 68 | 73 | 0.0 | 0.9 | 0.00 | 0.00 | 0.00 | 79 | 1001.7 |
| 20260505073003 | 68 | 78 | 1.7 | 7.0 | 0.00 | 0.00 | 0.00 | 80 | 1001.9 |
| 20260505072003 | 68 | 70 | 0.0 | 3.5 | 0.00 | 0.00 | 0.00 | 79 | 1002.3 |
| 20260505071221 | 68 | 75 | 0.0 | 5.2 | 0.00 | 0.00 | 0.00 | 79 | 1002.3 |
| 20260505070004 | 68 | 79 | 0.0 | 1.7 | 0.00 | 0.00 | 0.00 | 79 | 1002.3 |
| 20260505065218 | 68 | 0 | 0.0 | 0.0 | 0.00 | 0.00 | 0.00 | 78 | 1002.6 |
| 20260505064219 | 69 | 0 | 0.0 | 0.0 | 0.00 | 0.00 | 0.00 | 77 | 1002.6 |
| 20260505063003 | 69 | 0 | 0.0 | 0.0 | 0.00 | 0.00 | 0.00 | 77 | 1002.9 |
| 20260505062003 | 69 | 0 | 0.0 | 0.0 | 0.00 | 0.00 | 0.00 | 77 | 1002.9 |
| 20260505061003 | 69 | 0 | 0.0 | 0.0 | 0.00 | 0.00 | 0.00 | 76 | 1002.7 |
| 20260505060004 | 69 | 0 | 0.0 | 0.0 | 0.00 | 0.00 | 0.00 | 76 | 1002.4 |
| 20260505055003 | 69 | 0 | 0.0 | 0.0 | 0.00 | 0.00 | 0.00 | 75 | 1002.2 |
| 20260505054003 | 69 | 124 | 0.0 | 7.0 | 0.00 | 0.00 | 0.00 | 75 | 1002.0 |
| 20260505053003 | 69 | 152 | 0.9 | 2.6 | 0.00 | 0.00 | 0.00 | 75 | 1001.8 |
| 20260505052221 | 70 | 143 | 0.9 | 5.2 | 0.00 | 0.00 | 0.00 | 74 | 1001.9 |
| 20260505051003 | 70 | 138 | 1.7 | 7.0 | 0.00 | 0.00 | 0.00 | 74 | 1001.6 |
| 20260505041003 | 70 | 134 | 2.6 | 8.7 | 0.00 | 0.00 | 0.00 | 70 | 1001.9 |
| 20260505040004 | 71 | 130 | 1.7 | 7.8 | 0.00 | 0.00 | 0.00 | 69 | 1001.9 |
| 20260505035219 | 71 | 141 | 1.7 | 9.6 | 0.00 | 0.00 | 0.00 | 69 | 1001.9 |
| 20260505034003 | 71 | 139 | 1.7 | 5.2 | 0.00 | 0.00 | 0.00 | 69 | 1002.4 |
| 20260505033003 | 71 | 136 | 1.7 | 10.4 | 0.00 | 0.00 | 0.00 | 68 | 1002.4 |
| 20260505032003 | 71 | 128 | 1.7 | 9.6 | 0.00 | 0.00 | 0.00 | 67 | 1002.5 |
| 20260505031003 | 71 | 141 | 0.9 | 4.3 | 0.00 | 0.00 | 0.00 | 66 | 1002.5 |
| 20260505030003 | 72 | 135 | 2.6 | 9.6 | 0.00 | 0.00 | 0.00 | 65 | 1002.7 |
| 20260505025004 | 72 | 132 | 0.9 | 8.7 | 0.00 | 0.00 | 0.00 | 65 | 1002.8 |
| 20260505024003 | 72 | 132 | 0.9 | 11.3 | 0.00 | 0.00 | 0.00 | 65 | 1002.9 |
| 20260505023003 | 72 | 135 | 0.9 | 6.1 | 0.00 | 0.00 | 0.00 | 65 | 1003.0 |
| 20260505022003 | 73 | 139 | 1.7 | 7.0 | 0.00 | 0.00 | 0.00 | 64 | 1002.8 |
| 20260505021003 | 73 | 142 | 0.9 | 6.1 | 0.00 | 0.00 | 0.00 | 64 | 1002.6 |
| 20260505020220 | 73 | 145 | 1.7 | 6.1 | 0.00 | 0.00 | 0.00 | 64 | 1002.6 |
| 20260505015003 | 74 | 136 | 1.7 | 9.6 | 0.00 | 0.00 | 0.00 | 63 | 1002.6 |
| 20260505014003 | 74 | 133 | 1.7 | 10.4 | 0.00 | 0.00 | 0.00 | 64 | 1002.6 |
| 20260505013003 | 74 | 146 | 1.7 | 8.7 | 0.00 | 0.00 | 0.00 | 64 | 1002.6 |
| 20260505012003 | 74 | 129 | 0.9 | 7.0 | 0.00 | 0.00 | 0.00 | 63 | 1002.5 |
| 20260505011003 | 74 | 132 | 0.9 | 6.1 | 0.00 | 0.00 | 0.00 | 63 | 1002.5 |
| 20260505005004 | 76 | 143 | 0.9 | 6.1 | 0.00 | 0.00 | 0.00 | 62 | 1002.5 |
| 20260505004003 | 76 | 140 | 0.9 | 5.2 | 0.00 | 0.00 | 0.00 | 62 | 1002.6 |
| 20260505003003 | 76 | 152 | 0.9 | 7.8 | 0.00 | 0.00 | 0.00 | 61 | 1002.6 |
| 20260505002003 | 77 | 152 | 1.7 | 7.8 | 0.00 | 0.00 | 0.00 | 60 | 1002.6 |
| 20260505001003 | 77 | 151 | 2.6 | 11.3 | 0.00 | 0.00 | 0.00 | 60 | 1002.7 |
| 20260505000003 | 77 | 148 | 1.7 | 10.4 | 0.00 | 0.00 | 0.00 | 60 | 1002.9 |
| 20260504235003 | 78 | 158 | 1.7 | 10.4 | 0.00 | 0.00 | 0.00 | 59 | 1002.8 |
| 20260504234003 | 78 | 169 | 1.7 | 8.7 | 0.00 | 0.00 | 0.00 | 59 | 1002.7 |
| 20260504233003 | 78 | 156 | 1.7 | 8.7 | 0.00 | 0.00 | 0.00 | 59 | 1002.9 |
| 20260504232003 | 78 | 149 | 2.6 | 7.0 | 0.00 | 0.00 | 0.00 | 59 | 1002.9 |
| 20260504231221 | 78 | 156 | 2.6 | 10.4 | 0.00 | 0.00 | 0.00 | 58 | 1002.9 |
| 20260504230003 | 79 | 167 | 1.7 | 11.3 | 0.00 | 0.00 | 0.00 | 57 | 1002.9 |
| 20260504225218 | 79 | 158 | 1.7 | 7.8 | 0.00 | 0.00 | 0.00 | 57 | 1002.9 |
| 20260504224004 | 79 | 167 | 1.7 | 7.0 | 0.00 | 0.00 | 0.00 | 58 | 1003.0 |
| 20260504223003 | 80 | 165 | 1.7 | 7.8 | 0.00 | 0.00 | 0.00 | 57 | 1002.8 |
| 20260504222003 | 80 | 168 | 1.7 | 6.1 | 0.00 | 0.00 | 0.00 | 56 | 1002.8 |
| 20260504221004 | 80 | 152 | 1.7 | 8.7 | 0.00 | 0.00 | 0.00 | 57 | 1002.7 |
| 20260504220003 | 80 | 155 | 1.7 | 8.7 | 0.00 | 0.00 | 0.00 | 57 | 1002.8 |
| 20260504215003 | 80 | 162 | 1.7 | 7.8 | 0.00 | 0.00 | 0.00 | 57 | 1003.0 |
| 20260504214003 | 80 | 155 | 1.7 | 7.8 | 0.00 | 0.00 | 0.00 | 56 | 1003.0 |
| 20260504213003 | 81 | 166 | 2.6 | 13.0 | 0.00 | 0.00 | 0.00 | 56 | 1003.0 |
| 20260504212003 | 81 | 176 | 1.7 | 9.6 | 0.00 | 0.00 | 0.00 | 56 | 1003.2 |
| 20260504211004 | 81 | 175 | 2.6 | 9.6 | 0.00 | 0.00 | 0.00 | 54 | 1003.1 |
| 20260504210004 | 81 | 178 | 2.6 | 8.7 | 0.00 | 0.00 | 0.00 | 53 | 1003.2 |
| 20260504205003 | 81 | 148 | 2.6 | 13.9 | 0.00 | 0.00 | 0.00 | 53 | 1003.2 |
| 20260504204003 | 81 | 149 | 2.6 | 13.0 | 0.00 | 0.00 | 0.00 | 53 | 1003.4 |
| 20260504203003 | 81 | 182 | 3.5 | 11.3 | 0.00 | 0.00 | 0.00 | 53 | 1003.7 |
| 20260504202003 | 82 | 158 | 2.6 | 10.4 | 0.00 | 0.00 | 0.00 | 53 | 1003.8 |
| 20260504201003 | 82 | 153 | 2.6 | 12.2 | 0.00 | 0.00 | 0.00 | 53 | 1003.9 |
| 20260504200003 | 83 | 158 | 3.5 | 13.9 | 0.00 | 0.00 | 0.00 | 52 | 1004.1 |
| 20260504195003 | 82 | 162 | 3.5 | 16.5 | 0.00 | 0.00 | 0.00 | 52 | 1004.2 |
| 20260504194003 | 82 | 172 | 3.5 | 13.0 | 0.00 | 0.00 | 0.00 | 51 | 1004.3 |
| 20260504193003 | 82 | 155 | 3.5 | 15.6 | 0.00 | 0.00 | 0.00 | 53 | 1004.4 |
| 20260504192003 | 82 | 164 | 3.5 | 13.0 | 0.00 | 0.00 | 0.00 | 52 | 1004.4 |
| 20260504191003 | 83 | 148 | 3.5 | 12.2 | 0.00 | 0.00 | 0.00 | 52 | 1004.4 |
| 20260504190003 | 83 | 161 | 2.6 | 13.0 | 0.00 | 0.00 | 0.00 | 53 | 1004.4 |
| 20260504185003 | 83 | 167 | 3.5 | 12.2 | 0.00 | 0.00 | 0.00 | 52 | 1004.7 |
| 20260504184221 | 84 | 164 | 2.6 | 14.8 | 0.00 | 0.00 | 0.00 | 51 | 1004.7 |
| 20260504183003 | 83 | 175 | 3.5 | 16.5 | 0.00 | 0.00 | 0.00 | 52 | 1004.9 |
| 20260504182218 | 82 | 171 | 3.5 | 13.9 | 0.00 | 0.00 | 0.00 | 52 | 1004.9 |
| 20260504181003 | 82 | 161 | 3.5 | 12.2 | 0.00 | 0.00 | 0.00 | 52 | 1005.2 |
| 20260504180003 | 82 | 162 | 2.6 | 13.9 | 0.00 | 0.00 | 0.00 | 52 | 1005.2 |
| 20260504175003 | 82 | 151 | 3.5 | 13.9 | 0.00 | 0.00 | 0.00 | 52 | 1005.4 |
| 20260504174003 | 82 | 179 | 2.6 | 13.0 | 0.00 | 0.00 | 0.00 | 53 | 1005.6 |
| 20260504173003 | 82 | 168 | 3.5 | 11.3 | 0.00 | 0.00 | 0.00 | 51 | 1005.8 |
| 20260504172003 | 81 | 160 | 2.6 | 13.0 | 0.00 | 0.00 | 0.00 | 50 | 1005.8 |